COSMOS 2251 DEB, 34990

Orbit data source: Space-Track

COSMOS 2251 DEB, 34990 is space debris in LEO originally from a launch on Wed, 16 Jun 1993 UTC launched from the Plesetsk Missile And Space Complex (PKMTR). The debris from Iridium 33, an American commercial communications satellite, has been tracked extensively since its accidental collision with the defunct Russian satellite Cosmos 2251 in 2009. This event, occurring at high speed in low Earth orbit (LEO), generated thousands of pieces of space debris, significantly increasing the risk of further collisions. The Iridium 33 debris cloud has impacted space traffic management and orbital debris mitigation strategies, making it a subject of ongoing study in space situational awareness.

Loading next visibility...
Identifier
34990, 1993-036AFN
Orbit
LEO
Country
Flag of CISCIS
Related business
Manufacturer
Unknown
Mission
Spacecraft
Bus & Motor
Unknown
Mass
Unknown
Launch date (UTC)
1993-06-16 (32 years ago)
Launch vehicle
Unknown
Launch site
Plesetsk Missile And Space Complex (PKMTR)
Object type
Payload
Rocket body
Debris
Shape & HBR
Unknown shape, 0.1 m
Radar Cross Section
Small (<0.1 m²)

Expand to show TLE details & history
Last TLE update: 2 days ago

TLE from 2 days ago
0 COSMOS 2251 DEB
1 34990U 93036AFN 25290.89370580  .00001742  00000-0  53666-3 0  9997
2 34990  74.0480 354.8469 0014532  72.3659 287.9083 14.42152637865412
Epoch: 2025-10-17T21:26Z
TLE epoch observation values (Epoch: 2025-10-17T21:26:56.181Z)
Latitude
0.00002°
Longitude
6.48028°
Altitude
750.842 km
Speed
7.481 km/s
True Right ascension
23h 39m 23s
True Declination
0° 00' 00"
Sunlit
Object was in full shadow at epoch
Visualization orbit readout
Latitude
Unknown
Longitude
Unknown
Altitude
Unknown
Speed
Unknown
Apparent Right ascension
Unknown
Apparent Declination
Unknown
Sunlit
N/A
Visualization observer readout
Local Sidereal Time
01:01:11
Azimuth
Unknown
Elevation
Unknown
Doppler factor
Unknown
Orbital elements
Apogee altitude
759.368 km
Perigee altitude
738.654 km
Semi-major axis
7,127.148 km
Eccentricity
0.00145
Inclination
74.048°
RAAN
354.8469°
Arg. of periapsis
72.3659°
True anomaly
287.74976°
Mean anomaly
287.9083°
Eccentric anomaly
287.82904°
Mean motion
3.60719 °/min
Orbital period
99.8 mins
BSTAR
0.00053666
Loading maneuver chart data...
Computing Atmospheric mass density...

Documentation

Showing up to 5 results
|